Regional Weather Roundup
Issued by NWS Newport/Morehead, NC

Current Version | Previous Version | Graphics & Text | Print | Product List | Glossary On
Versions: 1 2 3 4 5 6 7 8 9 10 11 12 13 14 15 16 17 18 19 20 21 22 23 24 25 26 27 28 29 30 31 32 33 34 35 36 37 38 39 40 41 42 43 44 45 46 47 48 49 50
548 ASUS42 KMHX 282125 RWRMHX WEATHER ROUNDUP FOR EASTERN NORTH CAROLINA NATIONAL WEATHER SERVICE NEWPORT/MOREHEAD CITY NC 500 PM EDT SAT MAY 28 2016 NOTE: "FAIR" INDICATES FEW OR NO CLOUDS BELOW 12,000 FEET WITH NO SIGNIFICANT WEATHER AND/OR OBSTRUCTIONS TO VISIBILITY NCZ015>017-031-032-045>047-102-103-282200- NORTH COAST CITY SKY/WX TMP DP RH WIND PRES REMARKS EDENTON SUNNY 82 68 62 E12G17 30.14F ELIZABETH CITY SUNNY 80 60 50 SE13 30.15F KITTY HAWK CLEAR 80 67 64 E8 30.15F MANTEO NOT AVBL $$ NCZ045>047-081-094-103-104-282200- CENTRAL COAST CITY SKY/WX TMP DP RH WIND PRES REMARKS FRISCO LGT RAIN 76 73 91 E7 30.15S $$ NCZ095-097-098-100-101-282200- SOUTHERN COAST CITY SKY/WX TMP DP RH WIND PRES REMARKS BEAUFORT PTSUNNY 79 68 69 E7 30.13S CEDAR ISLAND NOT AVBL JACKSONVILLE SUNNY 83 67 58 SE13 30.11F PINEY ISLAND PTCLDY N/A N/A N/A E14 30.13F WILMINGTON PTSUNNY 78 67 68 E14G23 30.11F $$ NCZ011>013-027>030-043-044-078>080-089-090>093-098-282200- COASTAL PLAIN CITY SKY/WX TMP DP RH WIND PRES REMARKS AHOSKIE CLOUDY 83 62 50 SE7 30.13S CLINTON CLOUDY 83 67 59 E7 30.12S ELIZABETHTOWN PTSUNNY 75 72 92 E3 30.11F GOLDSBORO PTSUNNY N/A N/A N/A SE12 N/A GREENVILLE MOSUNNY 86 66 51 S9 30.13F HAVELOCK PTSUNNY 84 69 60 E13 30.13F KENANSVILLE PTSUNNY 81 65 57 CALM 30.13S KINSTON PTSUNNY 82 66 57 E7 30.13F NEW BERN PTSUNNY 83 65 54 E10 30.14S RICHLANDS PTSUNNY 83 67 58 NE10 30.12F ROCKY MOUNT PTSUNNY 87 61 41 VRB6 30.11F WASHINGTON MOSUNNY 82 65 55 SE12 30.13S WHITEVILLE CLOUDY 79 67 66 E8 30.10F $$ AMZ130-135-150-152-154-156-158-170-250-252-270-ANZ085-086-088-633-658-670-282200- MARINE OBSERVATIONS STATION/POSITION TIME TEMP WIND PRES WAVE SWELL AIR SEA DIR/SP/G HT/PER HT/PER (UTC) (F) (DEG/KT/KT) (MB) (FT/S) (FT/S) CHESAPEAKE LIGHT 2100 71 130/ 12/ 13 1022.0 64 E VA BEACH 2050 71 65 50/ 4/ 4 1021.6 4/ 9 3/ 9 DUCK 2100 72 62 80/ 10/ 12 1020.6 2 E DUCK 2011 68 N/A 2/ 7 OREGON INLET 2000 74 75 30/ 8/ 11 1021.5 13E OREGON INLT 2100 72 N/A 3/ 8 3/ 8 HATTERAS CG 2100 75 75 70/ 7/ 14 1020.5 DIAMOND BUOY 2050 78 78 110/ 10/ 12 1020.8 6/ 8 5/ 8 CAPE LOOKOUT 2100 76 50/ 14/ 15 1019.9 BEAUFORT LAB 2100 78 74 90/ 9/ 14 1019.6 30 SE NEW RVR IN 2025 75 N/A 6/ 8 27 SE WRIGHTSVLE 2108 76 75 60/ 12/ 17 1018.7 5 SE WRIGHTSVLE 2108 76 75 80/ 14/ 19 1019.8 225 S CAPE HAT 2050 76 76 100/ 16/ 19 1017.8 4/ 6 2/ 7 41 SE CHARLESTON 2050 76 76 30/ 23/ 27 1015.1 8/10 7/10 $$

USA.gov is the U.S. government's official web portal to all federal, state and local government web resources and services.